QPF
0.00 0.00 0.00 0.00 0.00 0.00 0.00 0.00 0.00 0.00 0.00 0.00 0.00 0.00 0.00 0.00 0.00 0.00 0.00 0.00 0.00 0.00 0.00 0.00 0.00 0.00 0.00 0.00 0.00 0.00 0.00 0.00 0.00 0.00 0.00 0.00 0.00 0.00 0.00 0.00 0.00 0.00 0.00
0.00 0.00 0.00 0.00 0.00 0.00 0.00 0.00 0.00 0.00 0.00 0.00 0.00 0.00 0.00 0.00 0.00 0.00 0.00 0.00 0.00 0.00 0.00 0.00 0.00 0.00 0.00 0.00 0.00 0.00 0.00 0.00 0.00 0.00 0.00 0.00 0.00 0.00 0.00 0.00 0.00 0.00 0.00
0.00 0.00 0.00 0.00 0.00 0.00 0.00 0.00 0.00 0.00 0.00 0.00 0.00 0.00 0.00 0.00 0.00 0.00 0.00 0.00 0.00 0.00 0.00 0.00 0.00 0.00 0.00 0.00 0.00 0.00 0.00 0.00 0.00 0.00 0.00 0.00 0.00 0.00 0.00 0.00 0.00 0.00 0.00
0.00 0.00 0.00 0.00 0.00 0.00 0.00 0.00 0.00 0.00 0.00 0.00 0.00 0.00 0.00 0.00 0.00 0.00 0.00 0.00 0.00 0.00 0.00 0.00 0.00 0.00 0.00 0.00 0.00 0.00 0.00 0.00 0.00 0.00 0.00 0.00 0.00 0.00 0.00 0.00 0.00 0.00 0.00
0.00 0.00 0.00 0.00 0.00 0.00 0.00 0.00 0.00 0.00 0.00 0.00 0.00 0.00 0.00 0.00 0.00 0.00 0.00 0.00 0.00 0.00 0.00 0.00 0.00 0.00 0.00 0.00 0.00 0.00 0.00 0.00 0.00 0.00 0.00 0.00 0.00 0.00 0.00 0.00 0.00 0.00 0.00
0.00 0.00 0.00 0.00 0.00 0.00 0.00 0.00 0.00 0.00 0.00 0.00 0.00 0.00 0.00 0.00 0.00 0.00 0.00 0.00 0.00 0.00 0.00 0.00 0.00 0.00 0.00 0.00 0.00 0.00 0.00 0.00 0.00 0.00 0.00 0.00 0.00 0.00 0.00 0.00 0.00 0.00 0.00
0.00 0.00 0.00 0.00 0.00 0.00 0.00 0.00 0.00 0.00 0.00 0.00 0.00 0.00 0.00 0.00 0.00 0.00 0.00 0.00 0.00 0.00 0.00 0.00 0.00 0.00 0.00 0.00 0.00 0.00 0.00 0.00 0.00 0.00 0.00 0.00 0.00 0.00 0.00 0.00 0.00 0.00 0.00
0.00 0.00 0.00 0.00 0.00 0.00 0.00 0.00 0.00 0.00 0.00 0.00 0.00 0.00 0.00 0.00 0.00 0.00 0.00 0.00 0.00 0.00 0.00 0.00 0.00 0.00 0.00 0.00 0.00 0.00 0.00 0.00 0.00 0.00 0.00 0.00 0.00 0.00 0.00 0.00 0.00 0.00 0.00
0.00 0.00 0.00 0.00 0.00 0.00 0.00 0.00 0.00 0.00 0.00 0.00 0.00 0.00 0.00 0.00 0.00 0.00 0.00 0.00 0.00 0.00 0.00 0.00 0.00 0.00 0.00 0.00 0.00 0.00 0.00 0.00 0.00 0.00 0.00 0.00 0.00 0.00 0.00 0.00 0.00 0.00 0.00
0.00 0.00 0.00 0.00 0.00 0.00 0.00 0.00 0.00 0.00 0.00 0.00 0.00 0.00 0.00 0.00 0.00 0.00 0.00 0.00 0.00 0.00 0.00 0.00 0.00 0.00 0.00 0.00 0.00 0.00 0.00 0.00 0.00 0.00 0.00 0.01 0.00 0.00 0.00 0.00 0.00 0.00 0.00
0.00 0.00 0.00 0.00 0.00 0.00 0.00 0.00 0.00 0.00 0.00 0.00 0.00 0.00 0.00 0.00 0.00 0.00 0.00 0.00 0.00 0.00 0.00 0.00 0.00 0.00 0.00 0.00 0.00 0.00 0.00 0.00 0.00 0.00 0.00 0.00 0.00 0.00 0.00 0.00 0.00 0.00 0.00
0.00 0.00 0.00 0.00 0.00 0.00 0.00 0.00 0.00 0.00 0.00 0.00 0.00 0.00 0.00 0.00 0.00 0.00 0.00 0.00 0.00 0.00 0.00 0.00 0.00 0.00 0.00 0.00 0.00 0.00 0.00 0.00 0.00 0.00 0.02 0.00 0.00 0.00 0.00 0.00 0.00 0.00 0.00
0.00 0.00 0.00 0.00 0.00 0.00 0.00 0.00 0.00 0.00 0.00 0.00 0.00 0.00 0.00 0.00 0.00 0.00 0.00 0.00 0.00 0.00 0.00 0.00 0.00 0.00 0.00 0.00 0.00 0.00 0.00 0.00 0.00 0.00 0.01 0.01 0.00 0.00 0.00 0.00 0.00 0.00 0.00
0.00 0.00 0.00 0.00 0.00 0.00 0.00 0.00 0.00 0.00 0.00 0.00 0.00 0.00 0.00 0.00 0.00 0.00 0.00 0.00 0.00 0.00 0.00 0.00 0.00 0.00 0.00 0.00 0.00 0.00 0.00 0.00 0.00 0.00 0.00 0.00 0.00 0.00 0.00 0.08 0.01 0.00 0.00
0.00 0.00 0.00 0.00 0.00 0.00 0.00 0.00 0.00 0.00 0.00 0.00 0.00 0.00 0.00 0.00 0.00 0.00 0.00 0.00 0.00 0.00 0.00 0.00 0.00 0.00 0.00 0.00 0.00 0.00 0.00 0.00 0.02 0.02 0.00 0.00 0.00 0.00 0.00 0.08 0.04 0.01 0.00
0.00 0.00 0.00 0.00 0.00 0.00 0.00 0.00 0.00 0.00 0.00 0.00 0.00 0.00 0.00 0.00 0.00 0.00 0.00 0.00 0.00 0.00 0.00 0.00 0.00 0.00 0.00 0.00 0.00 0.00 0.00 0.03 0.09 0.05 0.03 0.01 0.00 0.00 0.01 0.05 0.06 0.06 0.03
0.00 0.00 0.00 0.00 0.00 0.00 0.00 0.00 0.00 0.00 0.00 0.00 0.00 0.00 0.01 0.02 0.01 0.00 0.00 0.00 0.00 0.00 0.00 0.00 0.00 0.00 0.00 0.00 0.00 0.01 0.02 0.02 0.05 0.00 0.00 0.01 0.00 0.00 0.01 0.00 0.00 0.02 0.10
0.00 0.00 0.00 0.00 0.00 0.00 0.00 0.00 0.01 0.00 0.01 0.00 0.00 0.00 0.03 0.04 0.06 0.00 0.01 0.04 0.04 0.00 0.00 0.00 0.00 0.00 0.00 0.00 0.00 0.00 0.00 0.00 0.01 0.02 0.01 0.01 0.00 0.00 0.00 0.00 0.00 0.01 0.05
0.00 0.00 0.00 0.00 0.00 0.00 0.00 0.00 0.01 0.01 0.02 0.01 0.00 0.00 0.00 0.16 0.05 0.00 0.01 0.05 0.02 0.03 0.00 0.00 0.00 0.00 0.00 0.00 0.00 0.00 0.00 0.01 0.02 0.02 0.01 0.00 0.00 0.00 0.00 0.00 0.00 0.00 0.02
0.00 0.00 0.00 0.00 0.00 0.01 0.01 0.02 0.06 0.10 0.04 0.04 0.04 0.01 0.00 0.00 0.04 0.02 0.02 0.03 0.08 0.07 0.05 0.01 0.00 0.00 0.00 0.00 0.01 0.02 0.04 0.05 0.03 0.00 0.00 0.00 0.00 0.00 0.00 0.00 0.00 0.00 0.00
0.00 0.00 0.00 0.00 0.00 0.01 0.03 0.11 0.22 0.15 0.02 0.01 0.01 0.03 0.03 0.00 0.05 0.10 0.02 0.02 0.03 0.05 0.13 0.13 0.07 0.07 0.01 0.00 0.02 0.03 0.02 0.00 0.01 0.00 0.00 0.00 0.00 0.00 0.00 0.00 0.00 0.00 0.02
0.00 0.03 0.02 0.01 0.00 0.00 0.03 0.07 0.08 0.07 0.06 0.04 0.05 0.09 0.12 0.08 0.03 0.03 0.01 0.01 0.02 0.07 0.13 0.18 0.17 0.06 0.01 0.00 0.00 0.00 0.00 0.00 0.00 0.00 0.00 0.00 0.00 0.00 0.00 0.00 0.00 0.00 0.02
0.00 0.01 0.01 0.00 0.00 0.00 0.00 0.00 0.01 0.01 0.03 0.05 0.06 0.07 0.07 0.06 0.07 0.04 0.03 0.07 0.08 0.05 0.03 0.04 0.04 0.01 0.00 0.00 0.00 0.00 0.00 0.00 0.00 0.00 0.00 0.00 0.00 0.00 0.00 0.00 0.00 0.00 0.02
0.00 0.00 0.00 0.00 0.00 0.00 0.00 0.00 0.00 0.01 0.03 0.01 0.01 0.01 0.02 0.03 0.04 0.04 0.03 0.04 0.02 0.00 0.00 0.00 0.00 0.00 0.00 0.00 0.00 0.00 0.00 0.00 0.01 0.01 0.00 0.00 0.00 0.00 0.00 0.00 0.00 0.00 0.00
0.00 0.00 0.00 0.00 0.00 0.00 0.00 0.00 0.00 0.00 0.00 0.00 0.00 0.00 0.00 0.01 0.01 0.00 0.00 0.00 0.00 0.00 0.00 0.00 0.00 0.00 0.00 0.00 0.00 0.00 0.00 0.00 0.01 0.01 0.01 0.00 0.00 0.01 0.01 0.00 0.00 0.00 0.00
0.00 0.00 0.00 0.00 0.00 0.00 0.00 0.00 0.00 0.00 0.00 0.00 0.00 0.00 0.00 0.00 0.00 0.00 0.00 0.00 0.00 0.00 0.00 0.00 0.00 0.00 0.00 0.00 0.00 0.00 0.00 0.00 0.00 0.01 0.01 0.00 0.00 0.00 0.00 0.01 0.00 0.00 0.00
MSLP
1013.03 1012.91 1013.19 1013.38 1013.25 1013.45 1013.77 1014.09 1014.30 1014.45 1014.53 1014.64 1014.80 1014.88 1014.90 1014.94 1015.10 1015.24 1015.33 1015.47 1015.55 1015.59 1015.72 1015.85 1015.93 1016.03 1016.13 1016.23 1016.32 1016.28 1016.47 1016.55 1016.56 1016.56 1016.48 1016.53 1016.51 1016.59 1016.67 1016.76 1016.87 1016.90 1016.79
1012.14 1012.65 1013.05 1013.14 1013.28 1013.57 1013.90 1014.17 1014.37 1014.54 1014.65 1014.72 1014.92 1015.14 1015.25 1015.31 1015.43 1015.60 1015.65 1015.67 1015.78 1015.91 1016.05 1016.20 1016.37 1016.48 1016.59 1016.60 1016.66 1016.63 1016.66 1016.78 1016.81 1016.78 1016.81 1016.77 1016.78 1016.85 1016.91 1016.96 1017.07 1017.13 1017.11
1012.19 1012.58 1013.08 1013.22 1013.46 1013.77 1014.05 1014.31 1014.50 1014.67 1014.73 1014.90 1015.06 1015.20 1015.40 1015.63 1015.80 1015.86 1015.94 1015.93 1016.03 1016.22 1016.34 1016.45 1016.61 1016.75 1016.83 1016.86 1016.89 1016.87 1016.88 1016.91 1016.91 1017.07 1017.19 1017.27 1017.13 1016.98 1016.99 1017.09 1017.18 1017.29 1017.46
1012.46 1013.00 1013.29 1013.45 1013.69 1014.06 1014.35 1014.57 1014.75 1014.87 1014.99 1015.10 1015.24 1015.42 1015.63 1015.81 1016.00 1016.14 1016.23 1016.28 1016.33 1016.47 1016.62 1016.67 1016.75 1016.91 1017.02 1017.11 1017.10 1017.10 1017.14 1017.12 1017.14 1017.22 1017.38 1017.41 1017.37 1017.30 1017.27 1017.31 1017.42 1017.50 1017.60
1012.81 1013.23 1013.41 1013.57 1013.79 1014.09 1014.44 1014.80 1014.99 1015.11 1015.24 1015.39 1015.51 1015.64 1015.82 1016.01 1016.18 1016.32 1016.40 1016.48 1016.61 1016.69 1016.80 1016.83 1016.87 1017.02 1017.13 1017.14 1017.10 1017.07 1017.08 1017.13 1017.10 1017.02 1017.23 1017.40 1017.55 1017.49 1017.39 1017.38 1017.42 1017.53 1017.68
1013.19 1013.45 1013.55 1013.73 1013.96 1014.29 1014.54 1014.82 1015.23 1015.33 1015.42 1015.52 1015.64 1015.87 1016.08 1016.31 1016.48 1016.56 1016.63 1016.69 1016.81 1016.88 1016.91 1016.91 1016.92 1017.01 1017.05 1017.08 1017.06 1017.04 1017.01 1016.99 1016.95 1017.07 1017.02 1017.15 1017.27 1017.27 1017.31 1017.38 1017.40 1017.60 1017.71
1013.26 1013.56 1013.71 1013.90 1014.07 1014.42 1014.65 1014.93 1015.10 1015.33 1015.53 1015.71 1015.85 1016.04 1016.24 1016.41 1016.58 1016.66 1016.67 1016.73 1016.86 1017.00 1016.99 1016.93 1017.01 1017.04 1017.07 1017.14 1017.14 1017.04 1016.93 1016.75 1016.68 1016.76 1016.88 1017.06 1017.17 1017.21 1017.27 1017.39 1017.45 1017.57 1017.66
1013.44 1013.69 1013.85 1014.15 1014.37 1014.58 1014.61 1014.83 1015.09 1015.22 1015.47 1015.73 1015.91 1016.13 1016.37 1016.49 1016.57 1016.62 1016.61 1016.72 1016.87 1017.04 1017.00 1016.95 1017.02 1016.93 1017.01 1017.03 1017.01 1017.02 1016.96 1016.64 1016.63 1016.51 1016.64 1016.98 1017.11 1017.12 1017.14 1017.26 1017.39 1017.45 1017.67
1013.28 1013.75 1013.93 1014.15 1014.43 1014.68 1014.76 1014.91 1015.15 1015.28 1015.49 1015.78 1016.04 1016.18 1016.37 1016.53 1016.67 1016.68 1016.66 1016.79 1016.91 1017.05 1017.03 1016.92 1016.83 1016.79 1016.93 1016.85 1016.78 1016.85 1016.77 1016.65 1016.65 1016.62 1016.53 1016.80 1016.83 1016.87 1016.90 1016.98 1017.18 1017.39 1017.67
1013.87 1013.89 1014.04 1014.22 1014.48 1014.81 1015.05 1015.01 1015.25 1015.30 1015.50 1015.64 1016.04 1016.21 1016.40 1016.54 1016.69 1016.72 1016.70 1016.81 1016.79 1016.86 1016.87 1016.71 1016.72 1016.74 1016.81 1016.76 1016.69 1016.55 1016.63 1016.47 1016.57 1016.69 1016.53 1016.37 1016.35 1016.27 1016.46 1016.71 1016.73 1016.93 1017.31
1014.01 1014.17 1014.11 1014.24 1014.43 1014.62 1014.89 1015.01 1015.11 1015.34 1015.51 1015.79 1015.90 1016.23 1016.45 1016.64 1016.75 1016.74 1016.71 1016.77 1016.81 1016.80 1016.83 1016.73 1016.71 1016.75 1016.80 1016.62 1016.52 1016.43 1016.27 1016.34 1016.33 1016.25 1016.42 1016.27 1016.00 1016.08 1016.20 1016.32 1016.33 1016.33 1016.64
1013.76 1014.03 1014.20 1014.15 1014.29 1014.41 1014.54 1014.93 1015.13 1015.36 1015.57 1015.86 1015.97 1016.11 1016.38 1016.65 1016.81 1016.82 1016.89 1016.89 1016.90 1016.86 1016.85 1016.69 1016.69 1016.71 1016.73 1016.53 1016.37 1016.29 1016.23 1016.19 1016.16 1015.98 1015.99 1015.67 1015.76 1015.79 1015.74 1015.65 1015.91 1016.19 1016.36
1012.66 1013.45 1013.70 1014.09 1014.23 1014.34 1014.27 1014.65 1015.02 1015.35 1015.55 1015.67 1016.00 1016.23 1016.47 1016.63 1016.95 1017.00 1016.98 1016.95 1016.84 1016.82 1016.75 1016.65 1016.59 1016.59 1016.53 1016.35 1016.00 1015.86 1015.99 1015.98 1015.80 1015.47 1015.45 1015.34 1015.49 1015.30 1015.34 1015.77 1016.03 1015.91 1016.15
1012.70 1013.11 1013.35 1013.70 1014.11 1014.25 1014.34 1014.51 1014.65 1015.07 1015.40 1015.64 1015.93 1016.21 1016.55 1016.67 1016.79 1016.87 1016.82 1016.74 1016.71 1016.61 1016.59 1016.47 1016.37 1016.34 1016.31 1016.05 1015.91 1015.55 1015.85 1015.67 1015.40 1015.26 1015.09 1015.00 1015.03 1014.94 1014.96 1015.20 1015.51 1015.81 1016.05
1012.27 1012.65 1012.95 1013.48 1013.65 1013.95 1014.56 1014.58 1014.77 1014.87 1015.12 1015.37 1015.82 1016.13 1016.21 1016.36 1016.56 1016.61 1016.59 1016.56 1016.39 1016.29 1016.25 1016.22 1016.25 1016.25 1016.19 1015.96 1015.62 1015.59 1015.45 1015.45 1015.16 1015.19 1015.16 1015.03 1014.86 1014.63 1014.75 1014.78 1014.79 1015.27 1015.64
1011.73 1012.08 1012.69 1013.18 1013.32 1013.45 1014.22 1014.47 1014.69 1014.82 1014.92 1015.27 1015.64 1015.75 1015.85 1016.01 1016.21 1016.40 1016.21 1016.08 1016.03 1015.93 1015.77 1015.77 1015.95 1016.14 1016.08 1015.76 1015.47 1015.16 1015.08 1015.32 1015.14 1015.14 1015.16 1015.00 1014.72 1014.28 1014.05 1014.12 1014.26 1014.51 1015.01
1011.24 1011.59 1012.25 1012.92 1013.07 1013.09 1013.77 1014.29 1014.63 1014.71 1014.90 1015.13 1015.27 1015.35 1015.38 1015.39 1015.75 1015.86 1016.08 1016.25 1016.12 1016.00 1015.85 1015.70 1015.87 1015.93 1015.91 1015.56 1015.66 1015.35 1015.13 1015.12 1015.07 1015.09 1015.05 1014.72 1014.41 1014.18 1013.87 1013.87 1014.00 1014.17 1014.57
1010.87 1011.25 1011.59 1012.20 1012.83 1012.91 1013.59 1014.05 1014.43 1014.57 1014.54 1014.70 1014.79 1014.91 1014.95 1015.11 1015.21 1015.58 1015.91 1016.27 1016.40 1016.22 1016.11 1016.08 1016.09 1016.18 1016.21 1016.17 1015.97 1015.67 1015.49 1015.25 1015.15 1015.16 1015.00 1014.82 1014.47 1014.39 1014.15 1014.21 1014.27 1014.47 1014.25
1009.93 1010.73 1011.29 1011.69 1012.28 1012.76 1013.44 1013.93 1014.38 1014.46 1014.88 1014.88 1014.83 1014.83 1014.90 1015.06 1015.16 1015.63 1015.93 1016.17 1016.19 1016.28 1016.31 1016.20 1016.38 1016.44 1016.74 1016.65 1016.37 1015.97 1015.58 1015.33 1015.09 1014.87 1014.82 1014.67 1014.47 1014.40 1014.38 1014.35 1014.55 1014.52 1014.03
1009.73 1010.06 1010.61 1011.11 1011.69 1012.34 1013.23 1013.89 1014.34 1015.02 1015.12 1015.15 1015.08 1015.00 1014.82 1014.93 1015.14 1015.56 1016.06 1016.18 1016.31 1016.66 1016.79 1016.72 1016.63 1016.71 1016.88 1016.75 1016.58 1016.32 1015.75 1015.27 1015.16 1015.15 1015.06 1014.81 1014.67 1014.36 1013.90 1014.18 1014.33 1014.19 1013.75
1009.71 1009.89 1010.24 1011.14 1011.54 1012.11 1012.94 1013.89 1014.88 1015.34 1015.94 1015.89 1015.71 1015.67 1015.57 1015.56 1015.67 1016.09 1016.49 1016.81 1016.85 1016.65 1016.96 1016.90 1017.02 1017.37 1016.95 1016.61 1016.57 1016.47 1015.82 1015.42 1015.42 1015.29 1014.93 1014.95 1014.87 1014.42 1013.83 1013.63 1013.75 1013.53 1013.02
1010.13 1010.35 1010.60 1010.85 1011.35 1011.86 1012.67 1013.58 1014.27 1015.37 1016.31 1016.15 1016.16 1016.11 1016.01 1015.88 1016.05 1016.36 1016.73 1017.04 1017.02 1017.62 1017.25 1017.16 1017.38 1017.12 1017.17 1017.01 1017.10 1017.19 1016.71 1015.91 1015.52 1014.99 1014.71 1014.57 1014.40 1014.14 1013.71 1013.27 1013.07 1012.96 1012.74
1010.63 1010.96 1011.24 1011.35 1011.65 1012.16 1012.68 1013.49 1014.41 1015.37 1016.01 1016.33 1016.34 1016.61 1016.51 1016.52 1016.79 1017.20 1017.05 1017.44 1017.27 1017.60 1017.81 1017.70 1017.32 1017.23 1017.32 1017.21 1017.16 1017.33 1017.19 1016.89 1016.34 1015.10 1014.33 1014.22 1014.03 1013.85 1013.54 1012.99 1012.66 1012.60 1012.39
1011.26 1011.33 1011.61 1011.74 1011.94 1012.26 1012.83 1013.55 1014.37 1014.53 1015.61 1016.47 1016.79 1017.03 1017.05 1017.05 1017.16 1017.30 1017.57 1017.54 1017.71 1017.91 1018.05 1017.83 1017.67 1017.68 1017.57 1017.80 1017.44 1017.27 1017.35 1017.27 1016.72 1015.70 1015.09 1014.36 1013.81 1013.46 1013.04 1012.89 1012.47 1011.97 1011.82
1011.46 1011.70 1011.92 1012.11 1012.26 1012.50 1012.94 1013.57 1014.33 1015.02 1015.89 1016.58 1017.17 1017.33 1017.55 1017.54 1017.60 1017.75 1017.84 1018.20 1018.37 1018.33 1018.37 1018.20 1018.25 1018.29 1018.37 1018.45 1018.32 1017.97 1017.62 1017.30 1017.20 1016.85 1015.71 1014.96 1013.84 1012.96 1012.74 1012.50 1012.35 1011.81 1011.19
1011.63 1011.77 1011.90 1012.24 1012.87 1012.95 1013.33 1013.64 1014.16 1014.94 1016.01 1016.83 1017.33 1017.56 1017.65 1018.17 1018.21 1018.35 1018.43 1018.59 1018.61 1018.67 1018.82 1018.92 1018.89 1018.79 1018.72 1018.54 1018.60 1018.55 1018.55 1018.32 1017.80 1017.29 1016.60 1015.63 1014.71 1013.12 1012.31 1012.11 1011.67 1011.20 1010.56
Thickness
5799 5801 5797 5795 5796 5795 5793 5791 5790 5789 5789 5788 5786 5785 5784 5783 5780 5778 5775 5772 5769 5767 5764 5760 5758 5755 5752 5749 5747 5746 5742 5740 5739 5738 5738 5736 5735 5733 5731 5729 5726 5725 5724
5808 5803 5798 5797 5795 5793 5791 5789 5789 5788 5788 5787 5785 5782 5781 5779 5777 5774 5771 5769 5767 5764 5761 5758 5754 5751 5748 5746 5744 5743 5740 5738 5736 5735 5734 5733 5732 5730 5727 5726 5724 5722 5720
5807 5804 5798 5796 5794 5792 5790 5789 5788 5787 5787 5786 5784 5782 5779 5776 5773 5771 5768 5767 5765 5762 5759 5756 5753 5749 5746 5743 5741 5741 5738 5737 5736 5733 5730 5729 5728 5727 5726 5725 5723 5720 5718
5804 5799 5795 5793 5791 5789 5787 5786 5785 5785 5784 5783 5782 5779 5777 5774 5771 5768 5765 5763 5762 5760 5756 5754 5751 5748 5744 5741 5739 5737 5736 5734 5733 5731 5729 5726 5724 5723 5723 5722 5720 5718 5716
5800 5796 5793 5791 5790 5788 5786 5784 5783 5782 5781 5780 5778 5776 5774 5771 5768 5765 5763 5760 5757 5756 5754 5751 5749 5746 5743 5740 5738 5737 5735 5732 5731 5730 5728 5726 5722 5720 5721 5721 5720 5718 5715
5796 5792 5789 5789 5788 5786 5785 5783 5780 5779 5778 5778 5776 5773 5771 5768 5765 5762 5760 5757 5754 5753 5751 5750 5748 5746 5743 5740 5737 5734 5733 5731 5730 5729 5728 5726 5725 5722 5721 5720 5719 5715 5713
5795 5790 5787 5787 5786 5784 5783 5781 5780 5778 5776 5775 5773 5771 5769 5766 5763 5760 5758 5756 5753 5750 5748 5747 5746 5744 5741 5738 5735 5732 5730 5732 5732 5731 5729 5727 5725 5722 5719 5718 5716 5714 5712
5791 5788 5786 5784 5783 5782 5783 5781 5779 5778 5775 5773 5771 5769 5766 5763 5761 5759 5758 5755 5751 5748 5746 5744 5743 5743 5739 5736 5735 5733 5729 5732 5731 5732 5731 5726 5723 5721 5720 5718 5715 5714 5711
5789 5786 5785 5784 5782 5780 5781 5780 5777 5776 5774 5771 5768 5766 5763 5760 5758 5756 5755 5752 5749 5746 5744 5743 5742 5741 5737 5736 5735 5733 5730 5730 5731 5729 5729 5725 5723 5722 5721 5720 5716 5713 5709
5784 5783 5783 5783 5780 5778 5776 5778 5775 5775 5773 5771 5766 5763 5760 5758 5755 5754 5753 5750 5748 5746 5743 5743 5741 5738 5736 5735 5735 5734 5732 5730 5728 5727 5725 5725 5726 5726 5723 5720 5719 5715 5710
5783 5782 5782 5782 5781 5780 5778 5777 5776 5773 5771 5768 5766 5762 5759 5756 5754 5753 5752 5749 5746 5744 5742 5741 5739 5737 5734 5734 5735 5733 5732 5730 5729 5728 5726 5725 5726 5723 5720 5720 5720 5720 5716
5784 5783 5784 5783 5782 5782 5780 5776 5775 5773 5770 5767 5765 5763 5759 5756 5753 5751 5748 5746 5744 5742 5740 5740 5739 5736 5734 5735 5735 5734 5732 5730 5729 5729 5727 5728 5725 5724 5722 5720 5718 5717 5716
5794 5788 5788 5786 5783 5782 5782 5779 5775 5771 5770 5768 5762 5759 5757 5754 5749 5747 5746 5745 5744 5742 5741 5740 5739 5737 5736 5736 5736 5735 5732 5730 5730 5732 5729 5727 5724 5723 5721 5715 5712 5712 5710
5792 5790 5790 5788 5785 5783 5781 5779 5777 5772 5769 5765 5761 5757 5753 5751 5749 5747 5746 5745 5744 5742 5741 5740 5739 5738 5736 5736 5734 5735 5731 5730 5731 5731 5728 5727 5724 5722 5719 5716 5713 5709 5708
5796 5794 5792 5788 5788 5785 5778 5776 5773 5771 5767 5764 5759 5755 5753 5752 5749 5747 5745 5743 5743 5742 5741 5739 5737 5735 5734 5734 5735 5732 5731 5730 5731 5728 5724 5722 5721 5721 5715 5713 5711 5709 5706
5800 5798 5793 5787 5787 5786 5778 5774 5770 5767 5765 5761 5757 5755 5753 5752 5750 5746 5746 5746 5744 5743 5743 5741 5737 5733 5733 5733 5735 5735 5733 5728 5728 5725 5721 5718 5718 5719 5717 5714 5711 5708 5702
5802 5799 5793 5787 5786 5787 5780 5772 5767 5765 5762 5760 5758 5756 5754 5755 5752 5749 5746 5744 5741 5741 5740 5739 5735 5733 5732 5732 5731 5731 5730 5726 5724 5722 5719 5718 5716 5714 5714 5711 5708 5702 5698
5801 5798 5796 5792 5787 5786 5780 5772 5766 5763 5763 5761 5760 5757 5754 5752 5751 5749 5743 5741 5733 5735 5735 5733 5731 5727 5725 5723 5723 5723 5723 5722 5719 5717 5715 5713 5712 5709 5708 5703 5700 5693 5691
5805 5798 5794 5792 5788 5784 5778 5771 5765 5763 5759 5758 5758 5755 5752 5749 5747 5743 5738 5734 5732 5729 5727 5727 5722 5720 5715 5713 5714 5716 5717 5717 5716 5714 5712 5709 5708 5705 5701 5697 5689 5686 5685
5803 5801 5797 5794 5789 5784 5776 5770 5764 5758 5756 5755 5754 5752 5751 5748 5744 5739 5732 5730 5726 5722 5717 5716 5713 5712 5708 5708 5707 5707 5710 5712 5710 5708 5705 5702 5700 5700 5701 5693 5684 5678 5677
5799 5798 5797 5790 5787 5782 5773 5762 5752 5748 5743 5743 5742 5740 5739 5738 5735 5729 5723 5718 5716 5716 5711 5711 5705 5700 5702 5704 5701 5700 5703 5705 5701 5700 5700 5696 5693 5692 5694 5693 5685 5680 5684
5790 5788 5787 5787 5783 5778 5771 5762 5751 5739 5730 5731 5729 5728 5726 5726 5724 5720 5715 5711 5710 5704 5706 5703 5697 5697 5695 5694 5689 5684 5686 5694 5694 5695 5695 5691 5689 5689 5689 5690 5688 5684 5683
5780 5777 5774 5774 5772 5767 5762 5754 5745 5735 5729 5725 5724 5721 5718 5715 5710 5706 5706 5701 5701 5698 5695 5694 5693 5692 5687 5684 5682 5677 5675 5677 5681 5693 5691 5688 5688 5687 5685 5687 5686 5683 5683
5769 5769 5766 5764 5762 5760 5757 5749 5740 5738 5725 5719 5714 5711 5708 5705 5702 5698 5694 5693 5690 5686 5683 5684 5683 5680 5678 5672 5672 5670 5665 5665 5668 5677 5683 5682 5683 5686 5685 5683 5683 5685 5685
5763 5761 5759 5758 5756 5754 5750 5745 5736 5728 5719 5711 5705 5702 5697 5694 5690 5687 5684 5679 5676 5674 5672 5671 5668 5665 5661 5658 5656 5656 5657 5656 5656 5656 5665 5671 5676 5683 5683 5681 5681 5682 5685
5756 5755 5754 5752 5746 5745 5741 5736 5731 5723 5713 5704 5697 5693 5689 5680 5677 5673 5670 5666 5663 5661 5657 5654 5653 5652 5650 5649 5645 5644 5642 5642 5644 5645 5649 5657 5662 5672 5678 5678 5679 5682 5686